Погода в Шашикмане

Россия / Республика Алтай     50°47′29″N   86°03′27″E
темп.,
°C
ветер,
м/с
пор.,
м/с
влажн.,
%
обл.,
%
осадки,
мм/ч
давл.,
гПа
погр.,
м
7 мая, пт
пт701:00+9ю2257100 0.0 101218
04:00+8ю225792 0.0 101214
07:00+9юв2258100 0.0 101229
10:00+16вюв124086 0.0 1009334
13:00+20зсз3732100 0.0 10082186
16:00+14зсз3565100 0.3 1012813
19:00+10зюз1286100 3.4 1014194
22:00+9с3396100 4.8 1017269
8 мая, сб
сб801:00+6ссз239393 6.4 1019115
04:00+4з11885 0.0 102127
07:00+4зюз10845 0.0 102270
10:00+9ссв116145 0.0 1020666
13:00+13ссв124124 0.0 10181144
16:00+14ссв23331 0.0 10171712
19:00+13св23420 0.0 1017873
22:00+7ссз11620 0.0 101912
9 мая, вс
вс901:00+5з01740 0.0 102010
04:00+4ю11835 0.0 102110
07:00+5юв01800 0.0 102158
10:00+10св11538 0.0 1018529
13:00+15с223143 0.0 10151132
16:00+16с1226100 0.0 10141632
19:00+14св334127 0.0 1014501
22:00+8вюв015428 0.0 101610
10 мая, пн
пн1001:00+6юв115893 0.0 101510
04:00+5ююв115656 0.0 101311
07:00+7юв1154100 0.0 101230
10:00+11в124484 0.0 1010256
13:00+19зюз27245 0.0 10062295
16:00+19зюз7112997 0.0 10033259
19:00+16зюз7124149 0.1 10031937
22:00+9юз35686 0.6 1006132
11 мая, вт
вт1101:00+9юз3477100 2.5 1005121
04:00+7юз138995 3.6 1006204
07:00+6с3392100 4.7 1008483
10:00+3сз2397100 3.1 1013401
13:00+4зсз128583 4.3 1013529
16:00+7ссз345989 0.9 10131609
19:00+5с346783 1.5 10151076
22:00+1ссз228312 0.4 101944